STARLINK-32525, 62121

Orbit data source: Space-Track

STARLINK-32525, 62121 is a payload satellite owned by SpaceX/Seattle (US) in LEO that was launched on Wed, 27 Nov 2024 UTC via an FALCON 9 launch vehicle from the Air Force Eastern Test Range (AFETR). Payload-class satellites include a variety of spacecraft equipped with specific instruments for various scientific and technological missions. These include communications satellites like Starlink; space stations such as the ISS; scientific satellites like the Hubble; Earth observation satellites from companies like Planet Labs, Umbra, and HawkEye 360; GPS; miniature CubeSats for education and research; and military/defense satellites.

Loading next visibility...
Identifier
62121, 2024-222H
Orbit
LEO
Country
Flag of USUS
Related business
Manufacturer
SpaceX/Seattle
Mission
Operational Commercial Communications
Bus & Motor
STARLINK V2M, Unknown motor
Mass
730 kg wet, ~700 kg dry
Launch date (UTC)
2024-11-27 (2 years ago)
Launch vehicle
FALCON 9
Launch site
Air Force Eastern Test Range (AFETR)
Object type
Payload
Rocket body
Debris
Shape & HBR
Box + 2 Pan, 17.7 m
Radar Cross Section
33.884 m², Large (>1 m²)

Expand to show TLE details & history
Last TLE update: 12 hours ago

TLE from 12 hours ago
0 STARLINK-32525
1 62121U 24222H   26171.35569698  .00020877  00000-0  76583-3 0  9998
2 62121  42.9996 276.1022 0001232 225.8385 134.2365 15.27588999 88467
Epoch: 2026-06-20T08:32Z
TLE epoch observation values (Epoch: 2026-06-20T08:32:12.219Z)
Latitude
-0.00003°
Longitude
-120.52025°
Altitude
483.387 km
Speed
7.625 km/s
True Right ascension
18h 24m 24s
True Declination
0° 00' 00"
Sunlit
Object was in full shadow at epoch
Visualization orbit readout
Latitude
Unknown
Longitude
Unknown
Altitude
Unknown
Speed
Unknown
Apparent Right ascension
Unknown
Apparent Declination
Unknown
Sunlit
N/A
Visualization observer readout
Local Sidereal Time
07:14:49
Azimuth
Unknown
Elevation
Unknown
Doppler factor
Unknown
Orbital elements
Apogee altitude
485.813 km
Perigee altitude
484.122 km
Semi-major axis
6,863.104 km
Eccentricity
0.00012
Inclination
42.9996°
RAAN
276.1022°
Arg. of periapsis
225.8385°
True anomaly
134.24661°
Mean anomaly
134.2365°
Eccentric anomaly
134.24156°
Mean motion
3.81735 °/min
Orbital period
94.31 mins
BSTAR
0.00076583
Loading maneuver chart data...
Computing Atmospheric mass density...
Loading historical data...
Loading historical data...
Loading historical data...
Loading historical data...
Loading historical data...
Loading historical data...
Loading historical data...

Documentation

Showing up to 5 results
|